Weather History for CPLE - March, 2014

Change the Weather History Date:

Sunday, March 16, 2014

  Actual Average Record
Temperature  
Mean Temperature 4 °F -  
Max Temperature 8 °F - - ()
Min Temperature 0 °F - - ()
Degree Days  
Heating Degree Days 61    
Moisture  
Dew Point -1 °F    
Average Humidity 78    
Maximum Humidity 87    
Minimum Humidity 52    
Precipitation  
Precipitation 0.12 in - - ()
Sea Level Pressure  
Sea Level Pressure 29.97 in    
Wind  
Wind Speed 6 mph ()    
Max Wind Speed 9 mph    
Max Gust Speed -    
T = Trace of Precipitation, MM = Missing Value Source: Averaged Metar Reports

Daily Weather History Graph

Daily Weather History Graph

Search for Another Location

Airport or City:

Trip Planner

Search our weather history database for the weather conditions in past years. The results will help you decide how hot, cold, wet, or windy it might be!

Date:

Astronomy

Mar. 16, 2014 Rise Set
Actual Time 7:56 AM CDT 7:49 PM CDT
Civil Twilight 7:19 AM CDT 8:27 PM CDT
Nautical Twilight 6:34 AM CDT 9:12 PM CDT
Astronomical Twilight 5:47 AM CDT 10:00 PM CDT
Moon 8:18 PM CDT (3/16) 7:37 AM CDT (3/16)
Length of Visible Light 13h 08m
Length of Day
11h 53m
Full, 100% of the Moon is Illuminated
Mar 16
Full
Mar 16
Full
Mar 23
Last Quarter
Mar 30
New
Apr 7
First Quarter

Hourly Weather History & Observations

Time (CDT) Temp. Windchill Dew Point Humidity Pressure Visibility Wind Dir Wind Speed Gust Speed Precip Events Conditions
12:00 AM 1.0 °F -12.9 °F -8.5 °F 64% 30.29 in - South 8.1 mph - N/A   Unknown
1:00 AM 1 °F - -8 °F 52% 30.26 in - SSE 5.8 mph - -  
1:00 AM 1.2 °F -11.5 °F -7.8 °F 66% 30.26 in - SSE 6.9 mph - N/A   Unknown
2:00 AM 1.2 °F -12.7 °F -6.3 °F 71% 30.23 in - South 8.1 mph - N/A   Unknown
3:00 AM 1.0 °F -11.7 °F -5.8 °F 73% 30.21 in - South 6.9 mph - N/A   Unknown
4:00 AM 1.4 °F -9.9 °F -5.1 °F 74% 30.17 in - SSE 5.8 mph - N/A   Unknown
5:00 AM 1.4 °F -11.3 °F -4.5 °F 76% 30.14 in - SSE 6.9 mph - N/A   Unknown
6:00 AM 1.4 °F -11.3 °F -4.0 °F 78% 30.10 in - SSE 6.9 mph - N/A   Unknown
7:00 AM 2 °F - -3 °F 69% 30.07 in - SSE 5.8 mph - -  
7:00 AM 1.6 °F -11.0 °F -3.1 °F 81% 30.07 in - SSE 6.9 mph - N/A   Unknown
8:00 AM 0.7 °F -10.7 °F -3.6 °F 82% 30.03 in - SE 5.8 mph - N/A   Unknown
9:00 AM 1.4 °F -11.3 °F -2.7 °F 83% 30.02 in - SE 6.9 mph - N/A   Unknown
10:00 AM 2.3 °F -11.4 °F -2.0 °F 82% 29.98 in - SE 8.1 mph - N/A   Unknown
11:00 AM 3.0 °F -8.0 °F -1.5 °F 82% 29.94 in - SE 5.8 mph - N/A   Unknown
12:00 PM 2.8 °F -8.2 °F -1.1 °F 84% 29.92 in - ESE 5.8 mph - N/A   Unknown
1:00 PM 4 °F - 0 °F 78% 29.88 in - ESE 9.2 mph - -  
1:00 PM 3.7 °F -9.6 °F 0.5 °F 86% 29.88 in - ESE 8.1 mph - N/A   Unknown
2:00 PM 5.9 °F -7.0 °F 1.2 °F 81% 29.86 in - SE 8.1 mph - N/A   Unknown
3:00 PM 7.2 °F -4.3 °F 2.8 °F 82% 29.84 in - ESE 6.9 mph - N/A   Unknown
4:00 PM 7.0 °F -4.5 °F 3.2 °F 84% 29.82 in - SE 6.9 mph - N/A   Unknown
5:00 PM 7.3 °F -5.2 °F 2.7 °F 81% 29.81 in - ESE 8.1 mph - N/A   Unknown
6:00 PM 7.3 °F -6.2 °F 3.0 °F 82% 29.80 in - ESE 9.2 mph - N/A   Unknown
7:00 PM 8 °F - 4 °F 75% 29.78 in - SE 9.2 mph - -  
7:00 PM 7.9 °F -4.6 °F 3.7 °F 83% 29.78 in - SE 8.1 mph - N/A   Unknown
8:00 PM 7.9 °F -4.6 °F 4.1 °F 85% 29.78 in - SE 8.1 mph - N/A   Unknown
9:00 PM 7.9 °F -2.2 °F 4.3 °F 85% 29.77 in - ESE 5.8 mph - N/A   Unknown
10:00 PM 8.1 °F -3.2 °F 4.8 °F 87% 29.77 in - SE 6.9 mph - 0.03 in   Unknown
11:00 PM 8.4 °F -0.1 °F 5.2 °F 87% 29.75 in - ESE 4.6 mph - 0.04 in   Unknown